Lid_Strength_Index
4 4 4 4 4 4 4 4 4 4 3 3 3 3 3 3 3 5 9 6 5 1 -2 2 2 2 3 5 4 4 12 14 12 12 10 7 8 6 5 7 5 5 5 4 2
4 4 4 4 4 4 4 4 4 4 4 4 4 4 3 4 6 8 4 1 -0 -1 2 3 5 4 6 6 6 9 13 12 8 8 9 7 7 7 7 8 7 6 4 3 3
4 4 4 4 4 4 4 4 4 4 4 4 4 3 3 4 8 8 -0 0 -2 0 1 2 3 6 8 7 7 8 12 9 8 7 6 8 8 6 8 10 7 7 6 4 4
4 4 4 4 4 4 4 4 4 4 4 4 4 3 4 6 13 5 -2 -1 -2 1 4 5 6 9 11 10 7 10 8 8 7 6 6 7 6 8 7 7 5 5 4 4 4
4 4 4 4 4 4 4 4 4 4 4 4 4 3 6 9 10 5 -1 -1 0 3 5 7 9 9 11 10 9 9 8 7 6 6 6 6 7 8 7 5 5 4 4 4 4
3 3 3 3 3 3 3 4 4 4 4 4 4 3 8 12 7 4 0 1 1 4 7 7 9 9 9 9 9 9 9 8 6 6 6 7 8 7 7 5 5 5 5 4 4
3 4 4 4 3 3 4 4 4 4 2 3 3 4 8 10 6 5 3 2 2 4 6 6 7 8 9 10 8 10 12 11 9 6 8 6 10 10 6 5 6 6 5 5 4
4 4 4 4 4 4 4 4 4 2 3 3 2 4 9 4 4 4 6 4 2 4 7 6 7 9 10 9 9 11 13 15 11 7 7 7 13 9 6 7 7 6 6 5 4
4 4 4 4 4 5 5 4 3 2 2 2 5 7 10 3 5 5 5 4 3 5 7 4 8 11 10 12 13 13 16 14 12 7 8 8 12 9 6 7 7 7 6 5 5
4 4 5 5 5 5 5 4 4 2 2 3 3 9 8 9 9 8 6 4 6 6 8 9 11 13 14 14 15 16 14 14 13 9 9 10 11 9 7 7 8 7 6 6 5
4 5 5 5 5 6 7 12 13 14 13 14 13 10 10 9 8 8 6 5 7 9 12 11 13 14 12 12 11 10 12 13 11 8 10 10 11 10 8 8 8 7 7 6 6
5 5 5 5 6 6 9 12 12 11 15 11 11 11 10 11 12 10 8 7 8 11 10 12 14 11 10 10 11 12 13 14 11 9 10 10 11 9 9 8 8 7 7 6 6
5 5 5 5 5 8 10 10 9 11 16 13 11 11 11 11 12 11 9 9 8 10 10 11 10 8 9 10 11 11 13 14 13 10 9 11 13 11 9 8 7 7 6 6 6
4 4 4 4 7 8 8 7 7 9 16 12 12 10 10 11 12 9 9 10 10 9 10 11 8 8 9 9 9 12 9 11 11 11 14 11 18 13 10 10 8 7 7 6 6
2 2 3 3 7 8 6 6 6 9 18 9 11 7 11 13 11 10 8 10 12 10 10 11 11 10 10 9 8 10 8 10 11 12 13 12 16 14 11 12 10 8 7 6 5
2 2 3 5 7 6 6 7 9 14 17 12 10 11 11 12 11 10 9 7 8 10 11 10 8 9 9 7 7 7 9 10 13 12 15 13 14 14 14 11 9 8 7 6 5
3 3 4 4 8 6 7 10 15 17 11 13 13 12 13 12 11 11 10 11 12 14 15 11 11 10 8 10 8 8 13 16 17 17 17 14 14 12 10 8 8 8 7 6 5
4 4 5 4 4 5 9 12 18 13 14 12 12 12 13 12 13 12 13 13 10 12 14 16 15 12 9 10 10 10 11 16 20 19 16 15 17 12 8 7 6 6 6 5 5
4 7 7 6 4 8 11 17 16 13 12 13 13 15 15 12 12 12 13 14 10 10 15 16 15 10 10 10 9 11 12 10 15 16 18 16 14 11 10 9 7 7 6 6 5
7 10 8 5 5 9 12 15 15 11 11 12 16 14 16 14 14 14 13 10 11 9 10 13 17 11 11 10 9 10 10 14 16 18 19 17 16 13 12 12 8 8 7 6 5
10 11 7 5 7 10 15 15 12 9 9 12 14 15 15 14 14 15 14 11 8 10 10 13 14 13 11 13 14 12 11 14 13 15 16 18 15 13 11 10 10 8 6 6 5
11 13 7 8 12 14 14 13 10 10 9 10 11 12 13 13 14 14 14 12 7 9 12 11 14 16 14 11 11 12 13 11 14 16 17 16 13 9 10 10 10 10 7 5 5
12 13 8 9 16 16 13 12 10 11 10 10 10 9 10 13 15 13 11 8 7 9 11 12 14 17 15 14 13 15 13 14 14 15 16 16 13 9 10 10 10 10 9 6 5
12 14 12 12 13 15 14 13 12 9 9 8 9 8 9 11 11 13 11 8 7 8 7 8 14 16 18 16 15 17 15 15 15 17 13 14 13 11 10 10 10 10 9 7 5
12 15 14 16 15 15 14 13 12 11 8 8 9 10 11 12 12 13 11 10 8 7 9 10 15 13 14 14 14 16 16 15 16 14 16 12 14 11 11 10 10 8 7 7 5
13 13 13 12 12 12 14 14 12 11 10 10 10 9 9 12 11 12 11 12 11 9 11 11 13 14 15 13 14 16 15 14 13 12 12 13 13 10 8 8 8 7 7 7 5
10 9 9 11 12 13 14 11 11 9 8 7 8 10 11 9 7 8 8 9 10 10 12 12 13 14 18 14 15 16 13 11 11 11 11 13 11 8 10 9 9 8 7 6 5